TimeCET,TemperatureF,Dew PointF,Humidity,Sea Level PressureIn,VisibilityMPH,Wind Direction,Wind SpeedMPH,Gust SpeedMPH,PrecipitationIn,Events,Conditions,WindDirDegrees,DateUTC
12:00 AM,30.2,24.8,80,29.95,-9999.0,West,9.2,-,N/A,,Clear,280,2013-02-03 23:00:00
12:30 AM,28.4,24.8,86,29.95,-9999.0,WNW,11.5,-,N/A,,Clear,290,2013-02-03 23:30:00
1:00 AM,28.4,24.8,86,29.95,-9999.0,West,5.8,-,N/A,,Clear,270,2013-02-04 00:00:00
1:30 AM,28.4,26.6,93,29.95,-9999.0,WSW,6.9,-,N/A,,Clear,240,2013-02-04 00:30:00
2:00 AM,28.4,24.8,86,29.95,-9999.0,SW,6.9,-,N/A,,Clear,220,2013-02-04 01:00:00
2:30 AM,28.4,26.6,93,29.95,-9999.0,SW,6.9,-,N/A,,Clear,220,2013-02-04 01:30:00
3:00 AM,26.6,24.8,93,29.95,-9999.0,Variable,1.2,-,N/A,,Clear,0,2013-02-04 02:00:00
3:30 AM,26.6,23.0,86,29.92,-9999.0,Variable,3.5,-,N/A,,Clear,0,2013-02-04 02:30:00
4:00 AM,26.6,24.8,93,29.95,6.2,Variable,3.5,-,N/A,,Mostly Cloudy,0,2013-02-04 03:00:00
4:30 AM,28.4,26.6,93,29.92,6.2,Variable,3.5,-,N/A,,Mostly Cloudy,0,2013-02-04 03:30:00
5:00 AM,28.4,28.4,100,29.92,6.2,East,4.6,-,N/A,,Mostly Cloudy,100,2013-02-04 04:00:00
5:30 AM,30.2,28.4,93,29.95,6.2,SSW,4.6,-,N/A,,Mostly Cloudy,200,2013-02-04 04:30:00
6:00 AM,28.4,28.4,100,29.92,6.2,South,5.8,-,N/A,,Scattered Clouds,170,2013-02-04 05:00:00
6:30 AM,30.2,28.4,93,29.92,6.2,South,5.8,-,N/A,,Mostly Cloudy,190,2013-02-04 05:30:00
7:00 AM,30.2,28.4,93,29.95,6.2,SSE,4.6,-,N/A,,Mostly Cloudy,160,2013-02-04 06:00:00
7:30 AM,30.2,30.2,100,29.95,6.2,SSE,5.8,-,N/A,,Mostly Cloudy,160,2013-02-04 06:30:00
8:00 AM,32.0,30.2,93,29.95,6.2,South,5.8,-,N/A,,Mostly Cloudy,180,2013-02-04 07:00:00
8:30 AM,32.0,30.2,93,29.95,6.2,SSW,8.1,-,N/A,,Mostly Cloudy,210,2013-02-04 07:30:00
9:00 AM,32.0,28.4,87,29.95,6.2,SSW,10.4,-,N/A,,Mostly Cloudy,200,2013-02-04 08:00:00
9:30 AM,33.8,28.4,81,29.95,6.2,SSW,10.4,-,N/A,,Mostly Cloudy,210,2013-02-04 08:30:00
10:00 AM,33.8,28.4,81,29.95,6.2,SSW,10.4,-,N/A,,Mostly Cloudy,210,2013-02-04 09:00:00
10:30 AM,33.8,30.2,87,29.95,6.2,SSW,11.5,-,N/A,,Mostly Cloudy,210,2013-02-04 09:30:00
12:00 PM,35.6,28.4,75,29.95,6.2,SSW,11.5,-,N/A,,Mostly Cloudy,210,2013-02-04 11:00:00
12:30 PM,35.6,28.4,75,29.92,6.2,SSW,9.2,-,N/A,,Mostly Cloudy,200,2013-02-04 11:30:00
1:00 PM,35.6,28.4,75,29.92,6.2,South,9.2,-,N/A,,Mostly Cloudy,190,2013-02-04 12:00:00
1:30 PM,35.6,30.2,81,29.92,6.2,SSW,9.2,-,N/A,,Mostly Cloudy,200,2013-02-04 12:30:00
2:00 PM,37.4,30.2,75,29.92,6.2,SSW,10.4,-,N/A,,Mostly Cloudy,210,2013-02-04 13:00:00
2:30 PM,37.4,30.2,75,29.89,6.2,SSW,11.5,-,N/A,,Mostly Cloudy,210,2013-02-04 13:30:00
3:00 PM,37.4,30.2,75,29.89,6.2,SW,12.7,-,N/A,,Mostly Cloudy,220,2013-02-04 14:00:00
3:30 PM,37.4,30.2,75,29.89,6.2,SSW,10.4,-,N/A,,Mostly Cloudy,210,2013-02-04 14:30:00
4:00 PM,37.4,32.0,81,29.92,6.2,SSW,11.5,-,N/A,,Mostly Cloudy,210,2013-02-04 15:00:00
4:30 PM,37.4,32.0,81,29.92,6.2,SSW,11.5,-,N/A,,Mostly Cloudy,210,2013-02-04 15:30:00
5:00 PM,37.4,30.2,75,29.92,6.2,SSW,8.1,-,N/A,,Mostly Cloudy,200,2013-02-04 16:00:00
5:30 PM,35.6,30.2,81,29.92,6.2,South,8.1,-,N/A,,Light Drizzle,190,2013-02-04 16:30:00
6:00 PM,35.6,30.2,81,29.92,6.2,South,6.9,-,N/A,,Light Drizzle,180,2013-02-04 17:00:00
6:30 PM,35.6,32.0,87,29.92,6.2,SSW,8.1,-,N/A,,Mostly Cloudy,210,2013-02-04 17:30:00
7:00 PM,35.6,32.0,87,29.92,6.2,SW,9.2,-,N/A,Rain,Light Rain,220,2013-02-04 18:00:00
7:30 PM,35.6,33.8,93,29.92,5.0,SW,4.6,-,N/A,Snow,Light Snow,220,2013-02-04 18:30:00
8:00 PM,33.8,33.8,100,29.92,5.0,SSW,8.1,-,N/A,Rain-Snow,Light Rain,200,2013-02-04 19:00:00
8:30 PM,33.8,33.8,100,29.95,5.0,Variable,3.5,-,N/A,Rain-Snow,Light Rain,0,2013-02-04 19:30:00
9:00 PM,33.8,33.8,100,29.95,5.0,SSW,5.8,-,N/A,Rain-Snow,Light Rain,210,2013-02-04 20:00:00
9:30 PM,33.8,33.8,100,29.92,5.0,Variable,3.5,-,N/A,Rain,Light Rain,0,2013-02-04 20:30:00
10:00 PM,33.8,33.8,100,29.92,5.0,South,5.8,-,N/A,,Overcast,190,2013-02-04 21:00:00
10:30 PM,33.8,33.8,100,29.92,5.0,South,5.8,-,N/A,Rain,Light Rain,180,2013-02-04 21:30:00
11:30 PM,35.6,33.8,93,29.92,5.0,South,6.9,-,N/A,Rain,Light Rain,180,2013-02-04 22:30:00